Waarnemingen

Advertentie
Mijn weer
Nancy/Ochey, Frankrijk (7181): temperatuur & dauwpunt: 17.10.2017 02:00:00 - 23.10.2017 02:00:00 (CEST)Nancy/Ochey, Frankrijk (7181): temperatuur 5cm: 17.10.2017 02:00:00 - 23.10.2017 02:00:00 (CEST)Nancy/Ochey, Frankrijk (7181): temperatuur -20cm & temperatuur -100cm: 17.10.2017 02:00:00 - 23.10.2017 02:00:00 (CEST)Nancy/Ochey, Frankrijk (7181): windsnelheid & windstoten: 17.10.2017 02:00:00 - 23.10.2017 02:00:00 (CEST)Nancy/Ochey, Frankrijk (7181): windrichting: 17.10.2017 02:00:00 - 23.10.2017 02:00:00 (CEST)Nancy/Ochey, Frankrijk (7181): luchtdruk: 17.10.2017 02:00:00 - 23.10.2017 02:00:00 (CEST)Nancy/Ochey, Frankrijk (7181): zicht: 17.10.2017 02:00:00 - 23.10.2017 02:00:00 (CEST)Nancy/Ochey, Frankrijk (7181): neerslag: 17.10.2017 02:00:00 - 23.10.2017 02:00:00 (CEST)
Datum & Tijd tt [°C] td [°C] tt 5cm [°C] tt -20cm [°C] tt -100cm [°C] ff [km/u] ff [kn] fx [km/u] fx [kn] dd ppp [hPa] vv [km] rr [mm]
23.10.2017 02:00:00 7,4 6,7 6,3 12,7 14,2 5 3 18 10 ZW 1021,4 10 0,0
23.10.2017 01:00:00 7,2 6,1 6,1 12,8 14,2 13 7 30 16 WZW 1021,4 10 0,0
23.10.2017 00:00:00 7,0 5,9 5,6 12,8 14,3 21 11 35 19 WZW 1021,3 10 0,0
22.10.2017 23:00:00 7,2 6,1 6,2 12,8 14,2 21 11 45 25 ZW 1021,0 10 0,4
22.10.2017 22:00:00 7,5 5,8 6,6 12,8 14,3 18 10 29 16 ZW 1020,7 10 0,0
22.10.2017 21:00:00 7,7 5,8 6,6 12,8 14,2 15 8 27 15 ZW 1020,4 10 0,0
22.10.2017 20:00:00 7,5 6,0 6,9 12,8 14,3 16 9 26 14 ZW 1020,2 10 0,0
22.10.2017 19:00:00 7,9 5,9 6,9 12,9 14,2 18 10 32 17 ZW 1019,6 10 0,0
22.10.2017 18:00:00 8,5 5,4 8,1 12,9 14,2 18 10 41 22 WZW 1019,1 10 0,0
22.10.2017 17:00:00 10,3 6,4 10,5 12,9 14,3 24 13 40 21 WZW 1018,4 10 0,0
22.10.2017 16:00:00 9,8 6,1 10,6 12,9 14,2 26 14 47 26 W 1018,1 10 0,0
22.10.2017 15:00:00 9,7 7,1 9,3 13,0 14,3 24 13 40 22 WZW 1018,1 50 0,0
22.10.2017 14:00:00 9,1 7,5 8,1 13,0 14,3 22 12 36 19 ZW 1018,4 10 0,0
22.10.2017 13:00:00 8,7 6,7 8,2 13,0 14,3 22 12 45 25 ZW 1018,6 10 0,0
22.10.2017 12:00:00 8,5 6,8 7,9 13,1 14,3 29 16 52 28 ZW 1018,5 10 0,2
22.10.2017 11:00:00 8,9 6,0 9,1 13,2 14,3 26 14 47 26 ZW 1018,6 10 0,0
22.10.2017 10:00:00 8,8 6,1 8,0 13,2 14,3 29 16 43 23 ZW 1018,5 10 0,0
22.10.2017 09:00:00 8,0 5,8 6,7 13,3 14,3 26 14 47 25 ZW 1018,3 10 0,0
22.10.2017 08:00:00 7,5 5,6 6,4 13,3 14,3 28 15 37 20 ZW 1018,1 10 0,0
22.10.2017 07:00:00 7,8 5,6 6,4 13,3 14,3 26 14 41 22 ZW 1018,1 10 0,0
22.10.2017 06:00:00 7,8 5,6 6,4 13,4 14,3 29 16 41 22 ZW 1018,2 10 0,0
22.10.2017 05:00:00 7,9 5,9 6,7 13,4 14,3 26 14 37 20 ZW 1018,5 10 0,0
22.10.2017 04:00:00 8,4 6,4 7,0 13,4 14,3 26 14 40 21 ZW 1018,2 10 0,0
22.10.2017 03:00:00 8,9 7,3 7,7 13,4 14,3 24 13 39 21 ZZW 1018,5 10 0,0
22.10.2017 02:00:00 9,7 8,0 8,3 13,5 14,3 24 13 35 19 ZZW 1018,2 10 0,0
22.10.2017 01:00:00 9,5 8,1 7,1 13,5 14,3 28 15 42 23 ZZW 1018,3 10 0,0
22.10.2017 00:00:00 8,9 7,0 7,3 13,5 14,3 18 10 31 17 ZW 1018,3 10 0,0
21.10.2017 23:00:00 9,2 7,1 7,9 13,5 14,3 26 14 47 25 ZZW 1018,0 60 1,2
21.10.2017 22:00:00 10,7 9,1 9,5 13,5 14,3 21 11 41 22 Z 1017,3 10 0,0
21.10.2017 21:00:00 11,2 8,8 9,9 13,5 14,3 26 14 37 20 ZZW 1017,4 60 0,0
21.10.2017 20:00:00 11,2 8,8 9,7 13,6 14,3 18 10 37 20 Z 1017,2 10 0,0
21.10.2017 19:00:00 11,1 8,8 9,7 13,6 14,3 22 12 34 18 Z 1016,5 10 0,2
21.10.2017 18:00:00 11,3 8,9 9,8 13,5 14,3 21 11 41 22 ZZW 1016,3 10 0,6
21.10.2017 17:00:00 12,9 9,9 12,3 13,5 14,3 18 10 29 16 ZW 1016,1 10 0,0
21.10.2017 16:00:00 12,8 10,2 11,5 13,6 14,3 18 10 26 14 WZW 1016,0 10 0,0
21.10.2017 15:00:00 12,1 10,0 11,0 13,6 14,3 16 9 48 26 ZZW 1016,2 10 0,4
21.10.2017 14:00:00 13,0 11,1 11,9 13,5 14,3 21 11 41 22 WZW 1016,4 10 1,8
21.10.2017 13:00:00 14,8 13,0 13,9 13,5 14,3 15 8 34 18 ZW 1016,1 10 0,2
21.10.2017 12:00:00 15,5 12,3 15,5 13,6 14,3 22 12 35 19 ZZW 1015,9 10 0,0
21.10.2017 11:00:00 15,3 12,4 14,9 13,6 14,3 22 12 38 20 ZZW 1015,8 10 0,0
21.10.2017 10:00:00 15,3 11,9 13,5 13,6 14,3 24 13 35 19 Z 1015,1 10 0,0
21.10.2017 09:00:00 13,8 11,5 11,3 13,6 14,3 21 11 36 19 Z 1015,3 10 0,0
21.10.2017 08:00:00 13,0 11,1 11,0 13,7 14,3 18 10 29 16 Z 1015,1 10 0,0
21.10.2017 07:00:00 12,2 10,8 9,5 13,7 14,3 9 5 20 11 ZO 1015,8 10 0,0
21.10.2017 06:00:00 12,2 10,8 10,5 13,7 14,3 13 7 24 13 ZZO 1016,0 58 0,0
21.10.2017 05:00:00 11,8 10,5 9,2 13,7 14,3 15 8 22 12 Z 1016,2 10 0,0
21.10.2017 04:00:00 12,0 10,6 10,0 13,8 14,3 17 9 22 12 Z 1016,3 60 0,0
21.10.2017 03:00:00 11,7 10,4 9,4 13,8 14,3 15 8 20 11 Z 1016,8 10 0,0
21.10.2017 02:00:00 10,6 9,8 8,2 13,8 14,3 18 10 21 12 ZZW 1017,2 10 0,0
21.10.2017 01:00:00 10,1 9,3 2,8 13,8 14,3 11 6 16 9 ZZW 1017,3 10 0,2
21.10.2017 00:00:00 9,3 8,5 2,5 13,9 14,3 8 4 11 6 Z 1017,4 10 0,0
20.10.2017 23:00:00 9,8 8,7 5,4 13,9 14,3 9 5 14 8 Z 1017,2 10 0,0
20.10.2017 22:00:00 9,5 8,1 5,6 13,9 14,3 8 4 10 6 ZZO 1017,4 10 0,0
20.10.2017 21:00:00 10,4 8,7 7,2 13,9 14,3 11 6 15 8 Z 1017,3 10 0,0
20.10.2017 20:00:00 10,6 8,7 7,6 13,9 14,3 11 6 20 11 Z 1017,2 10 0,0
20.10.2017 19:00:00 11,1 8,7 9,2 13,9 14,3 15 8 27 15 ZZW 1016,8 10 0,0
20.10.2017 18:00:00 13,0 9,3 12,0 13,8 14,3 18 10 31 17 ZZW 1016,5 10 0,0
20.10.2017 17:00:00 14,3 9,5 14,3 13,8 14,3 22 12 34 18 ZZW 1015,9 60 0,0
20.10.2017 16:00:00 14,2 9,4 15,6 13,8 14,3 24 13 34 18 ZW 1015,8 10 0,0
20.10.2017 15:00:00 13,7 9,1 15,1 13,8 14,3 22 12 35 19 ZW 1016,1 10 0,0
20.10.2017 14:00:00 14,0 8,6 14,3 13,8 14,3 24 13 37 20 ZW 1016,0 10 0,0
20.10.2017 13:00:00 13,1 9,7 13,4 13,9 14,3 22 12 42 23 ZW 1016,1 10 0,0
20.10.2017 12:00:00 11,6 9,5 10,6 13,9 14,3 26 14 37 20 ZW 1016,2 10 0,4
20.10.2017 11:00:00 10,8 9,6 10,5 13,9 14,3 15 8 38 21 WZW 1016,1 10 0,4
20.10.2017 10:00:00 12,3 10,5 11,5 13,9 14,3 28 15 53 29 W 1014,8 9 0,0
20.10.2017 09:00:00 15,4 10,2 12,5 13,9 14,3 26 14 41 22 ZZW 1012,5 53 0,0
20.10.2017 08:00:00 14,1 10,7 12,0 13,9 14,3 18 10 36 20 Z 1011,8 10 0,0
20.10.2017 07:00:00 14,2 10,8 11,9 13,9 14,3 24 13 37 20 ZZW 1012,4 10 0,2
20.10.2017 06:00:00 15,3 9,4 12,6 13,9 14,3 18 10 34 18 Z 1011,7 10 0,0
20.10.2017 05:00:00 16,4 8,6 15,2 13,9 14,3 21 11 31 17 Z 1011,7 10 0,0
20.10.2017 04:00:00 17,1 8,2 15,8 13,9 14,3 18 10 31 17 Z 1011,5 10 0,0
20.10.2017 03:00:00 17,4 7,7 16,3 13,9 14,3 21 11 39 21 Z 1012,0 10 0,0
20.10.2017 02:00:00 17,7 7,1 16,1 13,9 14,3 26 14 42 23 Z 1011,8 10 0,0
20.10.2017 01:00:00 17,5 6,7 12,1 13,9 14,3 5 3 26 14 - 1011,7 10 0,0
20.10.2017 00:00:00 15,0 6,5 11,8 13,9 14,3 16 9 28 15 ZO 1011,6 10 0,0
19.10.2017 23:00:00 15,1 6,4 7,9 13,9 14,3 16 9 23 12 ZO 1011,8 10 0,0
19.10.2017 22:00:00 15,1 6,6 7,9 13,8 14,3 13 7 17 9 ZO 1011,7 10 0,0
19.10.2017 21:00:00 15,5 7,5 11,2 13,8 14,3 11 6 19 10 ZZO 1011,9 10 0,0
19.10.2017 20:00:00 16,8 7,7 14,4 13,8 14,3 11 6 21 11 ZZO 1011,5 10 0,0
19.10.2017 19:00:00 17,5 8,9 15,7 13,7 14,3 15 8 22 12 ZZO 1011,3 10 0,0
19.10.2017 18:00:00 18,5 8,7 17,0 13,7 14,3 13 7 18 10 ZZO 1011,1 10 0,0
19.10.2017 17:00:00 19,5 9,7 18,9 13,7 14,3 15 8 25 14 ZZO 1010,9 10 0,0
19.10.2017 16:00:00 21,8 9,0 22,3 13,6 14,3 16 9 27 15 Z 1010,8 10 0,0
19.10.2017 15:00:00 21,9 10,1 24,1 13,7 14,3 21 11 34 19 Z 1011,0 10 0,0
19.10.2017 14:00:00 21,9 9,4 22,1 13,7 14,3 21 11 37 20 ZZW 1011,2 10 0,0
19.10.2017 13:00:00 20,8 10,6 19,2 13,7 14,3 26 14 37 20 ZZW 1012,1 10 0,0
19.10.2017 12:00:00 18,3 10,4 18,9 13,7 14,3 22 12 42 23 ZZW 1012,8 10 0,0
19.10.2017 11:00:00 18,6 10,9 18,9 13,7 14,3 26 14 41 22 ZZW 1012,6 10 0,0
19.10.2017 10:00:00 17,6 10,5 12,6 13,7 14,3 26 14 37 20 Z 1012,6 10 0,0
19.10.2017 09:00:00 13,7 9,5 8,5 13,8 14,3 11 6 18 10 ZO 1012,9 10 0,0
19.10.2017 08:00:00 12,1 8,4 7,5 13,8 14,3 9 5 18 10 ZO 1012,6 10 0,2
19.10.2017 07:00:00 12,6 9,2 6,3 13,8 14,3 13 7 16 9 ZZO 1012,6 10 0,0
19.10.2017 06:00:00 12,6 9,2 8,5 13,8 14,3 12 7 22 12 ZZO 1012,7 35 0,0
19.10.2017 05:00:00 11,6 8,6 7,7 13,9 14,3 11 6 16 9 ZO 1013,1 10 0,0
19.10.2017 04:00:00 12,6 8,7 8,2 13,9 14,3 11 6 15 8 ZZO 1012,9 10 0,0
19.10.2017 03:00:00 11,8 9,0 6,6 13,9 14,4 13 7 15 8 ZZO 1013,5 10 0,0
19.10.2017 02:00:00 11,4 9,1 6,6 13,9 14,4 0 0 11 6 N 1013,5 10 0,0
19.10.2017 01:00:00 12,1 9,5 7,6 13,9 14,3 9 5 12 6 ZO 1013,7 10 0,0
19.10.2017 00:00:00 12,4 9,8 7,9 13,9 14,3 9 5 12 6 ZO 1013,9 10 0,0
18.10.2017 23:00:00 12,4 9,9 7,8 13,9 14,3 8 4 10 5 ZO 1014,1 10 0,0
18.10.2017 22:00:00 12,9 10,3 6,3 13,9 14,4 5 3 9 5 ZO 1013,8 28 0,0
18.10.2017 21:00:00 13,8 10,6 7,2 13,9 14,3 8 4 15 8 ZO 1013,5 10 0,0
18.10.2017 20:00:00 14,3 10,9 8,0 13,8 14,3 11 6 13 7 ZZO 1013,6 10 0,0
18.10.2017 19:00:00 15,9 11,3 8,7 13,8 14,3 8 4 10 5 ZO 1013,3 10 0,0
18.10.2017 18:00:00 18,3 10,4 15,0 13,7 14,3 9 5 23 12 Z 1013,1 10 0,0
18.10.2017 17:00:00 20,1 10,2 21,2 13,7 14,3 15 8 23 12 Z 1012,9 10 0,0
18.10.2017 16:00:00 20,2 11,4 23,5 13,7 14,3 13 7 27 15 Z 1013,1 10 0,0
18.10.2017 15:00:00 20,3 11,0 25,0 13,7 14,3 11 6 26 14 Z 1013,5 10 0,0
18.10.2017 14:00:00 19,9 11,4 24,0 13,7 14,3 18 10 36 19 Z 1014,0 10 0,0
18.10.2017 13:00:00 19,1 11,1 22,2 13,7 14,3 18 10 28 15 ZZW 1014,6 10 0,0
18.10.2017 12:00:00 17,6 10,7 20,2 13,7 14,3 16 9 36 19 Z 1015,2 10 0,0
18.10.2017 11:00:00 15,9 10,9 17,8 13,8 14,3 28 15 36 20 Z 1015,9 10 0,0
18.10.2017 10:00:00 14,7 10,5 11,5 13,8 14,3 18 10 29 16 Z 1016,2 10 0,0
18.10.2017 09:00:00 12,3 9,5 9,8 13,8 14,3 16 9 27 14 Z 1016,4 10 0,0
18.10.2017 08:00:00 12,0 9,0 7,5 13,9 14,3 16 9 27 15 Z 1016,5 10 0,0
18.10.2017 07:00:00 11,4 8,4 7,3 13,9 14,3 11 6 18 10 ZZO 1016,7 10 0,0
18.10.2017 06:00:00 12,7 8,4 10,0 14,0 14,4 13 7 24 13 ZZO 1016,6 10 0,0
18.10.2017 05:00:00 13,8 8,4 11,3 14,0 14,3 13 7 28 15 Z 1016,4 10 0,0
18.10.2017 04:00:00 14,5 7,8 12,1 14,0 14,3 21 11 32 17 Z 1016,5 10 0,0
18.10.2017 03:00:00 15,6 7,1 13,6 14,0 14,3 26 14 37 20 Z 1016,4 10 0,0
18.10.2017 02:00:00 16,1 7,0 6,8 14,1 14,3 22 12 33 18 Z 1016,6 10 0,0
18.10.2017 01:00:00 12,9 6,2 3,3 14,1 14,3 11 6 19 10 ZZO 1017,3 10 0,0
18.10.2017 00:00:00 12,4 6,9 5,5 14,1 14,3 13 7 17 9 ZZO 1017,7 10 0,0
17.10.2017 23:00:00 12,9 7,3 6,8 14,1 14,3 13 7 16 8 ZO 1017,9 10 0,0
17.10.2017 22:00:00 13,4 8,0 5,8 14,1 14,3 11 6 16 9 OZO 1017,9 10 0,0
17.10.2017 21:00:00 13,7 7,9 5,1 14,0 14,3 11 6 14 8 OZO 1018,1 10 0,0
17.10.2017 20:00:00 14,7 9,1 5,9 14,0 14,3 9 5 14 8 OZO 1018,6 10 0,0
17.10.2017 19:00:00 16,5 10,3 9,3 14,0 14,3 9 5 14 7 ZO 1018,4 10 0,0
17.10.2017 18:00:00 19,7 9,8 17,9 13,9 14,3 11 6 18 10 ZO 1018,2 10 0,0
17.10.2017 17:00:00 20,5 11,1 21,7 13,9 14,3 9 5 19 10 ZO 1018,7 10 0,0
17.10.2017 16:00:00 20,9 10,1 24,0 13,9 14,3 13 7 19 11 ZO 1018,9 10 0,0
17.10.2017 15:00:00 21,0 10,2 24,9 13,9 14,3 13 7 20 11 ZO 1019,8 10 0,0
17.10.2017 14:00:00 21,0 11,3 24,7 13,9 14,3 11 6 16 9 ZZO 1020,6 10 0,0
17.10.2017 13:00:00 20,0 11,2 24,3 13,9 14,3 11 6 19 10 ZO 1021,6 10 0,0
17.10.2017 12:00:00 18,6 11,7 21,3 13,9 14,3 13 7 18 10 ZO 1022,4 10 0,0
17.10.2017 11:00:00 16,3 10,2 17,7 14,0 14,3 9 5 13 7 ZO 1023,2 10 0,0
17.10.2017 10:00:00 14,4 9,2 10,5 14,0 14,3 5 3 10 5 ZO 1023,9 10 0,0
17.10.2017 09:00:00 10,8 8,6 6,3 14,1 14,3 5 3 9 5 O 1024,1 10 0,0
17.10.2017 08:00:00 10,1 7,7 6,4 14,1 14,3 5 3 11 6 ZO 1024,2 10 0,0
17.10.2017 07:00:00 11,7 8,5 6,3 14,1 14,3 9 5 12 6 ZO 1023,8 10 0,0
17.10.2017 06:00:00 11,9 8,2 7,5 14,1 14,3 5 3 13 7 ZZO 1023,9 10 0,0
17.10.2017 05:00:00 12,8 8,3 8,5 14,1 14,3 11 6 13 7 ZO 1023,8 10 0,0
17.10.2017 04:00:00 13,8 8,2 10,2 14,2 14,3 9 5 13 7 ZZO 1023,8 10 0,0
17.10.2017 03:00:00 14,5 8,2 8,9 14,2 14,3 8 4 12 7 ZZO 1023,9 10 0,0
17.10.2017 02:00:00 14,5 8,0 9,1 14,2 14,3 8 4 15 8 ZO 1023,9 10 0,0

tt = temperatuur
td = dauwpunt
tt 5cm = temperatuur 5cm
tt -20cm = temperatuur -20cm
tt -100cm = temperatuur -100cm
ff = windsnelheid
fx = windstoten
dd = windrichting
ppp = luchtdruk
vv = zicht
rr = neerslag

Weerstations in de omgeving